{"data":{"norad_id":65614,"intl_designator":"2025-207Y","name":"STARLINK-35206","alt_names":[],"object_type":"PAYLOAD","status":"ACTIVE","operator":null,"country":"US","launch_date":"2025-09-13","launch_site_code":"AFWTR","launch_vehicle":null,"mission":null,"orbit_class":"UNKNOWN","rcs_meters":null,"size_class":null,"mass_kg":null,"dimensions":null,"purposes":["comms"],"wikipedia_slug":null,"has_3d_model":false,"image_url":null,"decayed_at":null,"tle_current":{"epoch":"2026-09-20T22:00:03.000096Z","epoch_age_seconds":75922,"freshness":"FRESH","line1":"1 65614U 25207Y   26263.91670139  .00002250  00000+0  72081-4 0  9993","line2":"2 65614  97.2853 326.3797 0001621  88.1957  57.2536 15.33410244  5799","mean_motion":15.33410244,"eccentricity":0.0001621,"inclination_deg":97.2853,"raan_deg":326.3797,"arg_perigee_deg":88.1957,"mean_anomaly_deg":57.2536,"bstar":7.2081e-5,"rev_number":579,"period_min":93.908333117931,"perigee_km":464.53720851515,"apogee_km":466.75596315368,"semimajor_km":6843.7835858344,"source":"CELESTRAK","updated_at":"2026-09-21T09:00:35.657813Z"}}}